When you browse on this site, cookies collect data to enhance your experience and personalize the content and advertising you see.
Visit our Privacy Policy to learn more. By continuing to use the site, you agree to this use of cookies and data.

Hourly Weather Berdychev

Today, 26 September, Saturday

Time Temperature Precipitation Wind Pressure Humidity
00:00 +17°C° 0 mm 5 mps 732 mmHg 65%
01:00 +18°C° 0 mm 4 mps 732 mmHg 67%
02:00 +17°C° 0 mm 4 mps 732 mmHg 71%
03:00 +17°C° 0 mm 4 mps 732 mmHg 72%
04:00 +15°C° 0 mm 4 mps 732 mmHg 73%
05:00 +15°C° 0 mm 5 mps 732 mmHg 73%
06:00 +16°C° 0 mm 5 mps 731 mmHg 70%
07:00 +17°C° 0 mm 6 mps 731 mmHg 66%
08:00 +19°C° 0 mm 6 mps 731 mmHg 62%
09:00 +20°C° 0 mm 7 mps 731 mmHg 57%
10:00 +22°C° 0 mm 8 mps 731 mmHg 52%
11:00 +24°C° 0 mm 8 mps 731 mmHg 48%
12:00 +26°C° 0 mm 8 mps 731 mmHg 46%
13:00 +27°C° 0 mm 8 mps 731 mmHg 44%
14:00 +28°C° 0 mm 8 mps 730 mmHg 42%
15:00 +27°C° 0 mm 7 mps 730 mmHg 44%
16:00 +26°C° 0 mm 6 mps 730 mmHg 46%
17:00 +25°C° 0 mm 5 mps 729 mmHg 48%
18:00 +23°C° 0 mm 5 mps 729 mmHg 50%
19:00 +22°C° 0 mm 6 mps 729 mmHg 52%
20:00 +21°C° 0 mm 6 mps 729 mmHg 54%
21:00 +21°C° 0 mm 6 mps 729 mmHg 60%
22:00 +20°C° 0 mm 6 mps 729 mmHg 65%
23:00 +20°C° 0 mm 7 mps 729 mmHg 70%

Tomorrow, 27 September, Sunday

Time Temperature Precipitation Wind Pressure Humidity
00:00 +20°C° 0 mm 7 mps 729 mmHg 69%
01:00 +20°C° 0 mm 8 mps 729 mmHg 68%
02:00 +20°C° 0 mm 8 mps 729 mmHg 67%
03:00 +20°C° 0.3 mm 8 mps 728 mmHg 69%
04:00 +18°C° 0.3 mm 8 mps 728 mmHg 71%
05:00 +18°C° 0.3 mm 8 mps 728 mmHg 72%
06:00 +17°C° 1.1 mm 8 mps 728 mmHg 74%
07:00 +17°C° 1.1 mm 8 mps 728 mmHg 77%
08:00 +17°C° 1.1 mm 9 mps 728 mmHg 79%
09:00 +17°C° 2.1 mm 8 mps 729 mmHg 77%
10:00 +18°C° 2.1 mm 8 mps 729 mmHg 76%
11:00 +18°C° 2.1 mm 7 mps 730 mmHg 74%
12:00 +18°C° 0.1 mm 7 mps 731 mmHg 71%
13:00 +17°C° 0.1 mm 6 mps 732 mmHg 68%
14:00 +17°C° 0.1 mm 6 mps 733 mmHg 64%
15:00 +16°C° 0 mm 5 mps 733 mmHg 65%
16:00 +15°C° 0 mm 4 mps 734 mmHg 65%
17:00 +14°C° 0 mm 4 mps 735 mmHg 66%
18:00 +13°C° 0 mm 3 mps 736 mmHg 70%
19:00 +13°C° 0 mm 2 mps 736 mmHg 74%
20:00 +12°C° 0 mm 1 mps 737 mmHg 78%
21:00 +12°C° 0 mm 1 mps 738 mmHg 78%
22:00 +12°C° 0 mm 1 mps 738 mmHg 78%
23:00 +11°C° 0 mm 1 mps 739 mmHg 77%

Day after tomorrow, 28 September, Monday

Time Temperature Precipitation Wind Pressure Humidity
00:00 +11°C° 0 mm 1 mps 739 mmHg 78%
01:00 +11°C° 0 mm 1 mps 740 mmHg 78%
02:00 +10°C° 0 mm 2 mps 740 mmHg 78%
03:00 +10°C° 0 mm 2 mps 740 mmHg 79%
04:00 +9°C° 0 mm 2 mps 740 mmHg 80%
05:00 +9°C° 0 mm 2 mps 741 mmHg 81%
06:00 +10°C° 0 mm 3 mps 741 mmHg 77%
07:00 +11°C° 0 mm 3 mps 741 mmHg 73%
08:00 +12°C° 0 mm 4 mps 741 mmHg 69%
09:00 +14°C° 0 mm 4 mps 741 mmHg 63%
10:00 +16°C° 0 mm 5 mps 741 mmHg 57%
11:00 +19°C° 0 mm 5 mps 741 mmHg 51%
12:00 +20°C° 0 mm 5 mps 741 mmHg 49%
13:00 +21°C° 0 mm 5 mps 741 mmHg 48%
14:00 +22°C° 0 mm 6 mps 741 mmHg 47%
15:00 +21°C° 0 mm 5 mps 740 mmHg 49%
16:00 +20°C° 0 mm 4 mps 740 mmHg 52%
17:00 +20°C° 0 mm 3 mps 740 mmHg 54%
18:00 +19°C° 0 mm 4 mps 740 mmHg 54%
19:00 +18°C° 0 mm 4 mps 740 mmHg 55%
20:00 +17°C° 0 mm 4 mps 739 mmHg 55%
21:00 +17°C° 0 mm 4 mps 739 mmHg 56%
22:00 +15°C° 0 mm 4 mps 739 mmHg 57%
23:00 +15°C° 0 mm 4 mps 739 mmHg 58%

29 September, Tuesday

Time Temperature Precipitation Wind Pressure Humidity
00:00 +15°C° 0 mm 4 mps 739 mmHg 59%
01:00 +14°C° 0 mm 4 mps 738 mmHg 59%
02:00 +14°C° 0 mm 3 mps 738 mmHg 60%
03:00 +14°C° 0 mm 3 mps 738 mmHg 59%
04:00 +14°C° 0 mm 4 mps 737 mmHg 58%
05:00 +14°C° 0 mm 4 mps 737 mmHg 58%
06:00 +14°C° 0 mm 3 mps 737 mmHg 57%
07:00 +15°C° 0 mm 2 mps 736 mmHg 57%
08:00 +15°C° 0 mm 2 mps 736 mmHg 57%
09:00 +15°C° 0.6 mm 2 mps 736 mmHg 62%
10:00 +15°C° 0.6 mm 2 mps 736 mmHg 68%
11:00 +14°C° 0.6 mm 3 mps 736 mmHg 73%
12:00 +13°C° 1.1 mm 3 mps 735 mmHg 77%
13:00 +13°C° 1.1 mm 3 mps 735 mmHg 81%
14:00 +12°C° 1.1 mm 3 mps 735 mmHg 85%
15:00 +12°C° 2.4 mm 3 mps 735 mmHg 88%
16:00 +12°C° 2.4 mm 3 mps 734 mmHg 90%
17:00 +11°C° 2.4 mm 3 mps 734 mmHg 93%
18:00 +11°C° 2.5 mm 3 mps 734 mmHg 94%
19:00 +12°C° 2.5 mm 3 mps 734 mmHg 95%
20:00 +12°C° 2.5 mm 3 mps 734 mmHg 97%
21:00 +12°C° 1.3 mm 3 mps 733 mmHg 97%
22:00 +12°C° 1.3 mm 3 mps 733 mmHg 97%
23:00 +12°C° 1.3 mm 3 mps 733 mmHg 97%

30 September, Wednesday

Time Temperature Precipitation Wind Pressure Humidity
00:00 +12°C° 0.2 mm 3 mps 732 mmHg 97%
01:00 +12°C° 0.2 mm 3 mps 732 mmHg 97%
02:00 +12°C° 0.2 mm 3 mps 731 mmHg 97%
03:00 +12°C° 2.3 mm 3 mps 731 mmHg 97%
04:00 +12°C° 2.3 mm 4 mps 731 mmHg 97%
05:00 +12°C° 2.3 mm 4 mps 730 mmHg 97%
06:00 +12°C° 0.7 mm 3 mps 730 mmHg 97%
07:00 +12°C° 0.7 mm 3 mps 730 mmHg 97%
08:00 +13°C° 0.7 mm 2 mps 730 mmHg 96%
09:00 +13°C° 0.2 mm 2 mps 730 mmHg 95%
10:00 +14°C° 0.2 mm 2 mps 730 mmHg 93%
11:00 +14°C° 0.2 mm 1 mps 730 mmHg 91%
12:00 +15°C° 0 mm 1 mps 730 mmHg 89%
13:00 +16°C° 0 mm 2 mps 730 mmHg 86%
14:00 +16°C° 0 mm 2 mps 730 mmHg 84%
15:00 +16°C° 0.2 mm 2 mps 729 mmHg 86%
16:00 +14°C° 0.2 mm 3 mps 729 mmHg 89%
17:00 +13°C° 0.2 mm 3 mps 729 mmHg 91%
18:00 +13°C° 1.5 mm 3 mps 729 mmHg 93%
19:00 +13°C° 1.5 mm 3 mps 729 mmHg 94%
20:00 +13°C° 1.5 mm 2 mps 729 mmHg 96%
21:00 +13°C° 1.2 mm 2 mps 729 mmHg 96%
22:00 +13°C° 1.2 mm 2 mps 729 mmHg 96%
23:00 +13°C° 1.2 mm 2 mps 728 mmHg 96%

1 October, Thursday

Time Temperature Precipitation Wind Pressure Humidity
00:00 +13°C° 0.2 mm 2 mps 728 mmHg 96%
01:00 +13°C° 0.2 mm 2 mps 728 mmHg 96%
02:00 +13°C° 0.2 mm 2 mps 728 mmHg 96%
03:00 +12°C° 1 mm 2 mps 728 mmHg 96%
04:00 +12°C° 1 mm 2 mps 728 mmHg 96%
05:00 +12°C° 1 mm 2 mps 728 mmHg 97%
06:00 +11°C° 1.4 mm 3 mps 728 mmHg 95%
07:00 +12°C° 1.4 mm 4 mps 728 mmHg 93%
08:00 +12°C° 1.4 mm 5 mps 728 mmHg 91%
09:00 +13°C° 0 mm 6 mps 729 mmHg 85%
10:00 +14°C° 0 mm 6 mps 729 mmHg 80%
11:00 +15°C° 0 mm 7 mps 730 mmHg 75%
12:00 +15°C° 0 mm 7 mps 730 mmHg 71%
13:00 +16°C° 0 mm 6 mps 731 mmHg 67%
14:00 +17°C° 0 mm 6 mps 731 mmHg 63%
15:00 +17°C° 0.2 mm 5 mps 731 mmHg 65%
16:00 +17°C° 0.2 mm 4 mps 732 mmHg 66%
17:00 +17°C° 0.2 mm 4 mps 732 mmHg 68%
18:00 +15°C° 0.1 mm 4 mps 732 mmHg 70%
19:00 +15°C° 0.1 mm 4 mps 732 mmHg 71%
20:00 +14°C° 0.1 mm 5 mps 733 mmHg 73%
21:00 +14°C° 0 mm 4 mps 733 mmHg 75%
22:00 +13°C° 0 mm 4 mps 733 mmHg 77%
23:00 +13°C° 0 mm 4 mps 733 mmHg 80%
Show more